Flag for Germany Weather past 2 weeks in Bremerhaven, Bremen, Germany

Now
43 °F

Partly sunny.


Feels Like: 37 °F
Forecast: 42 / 54 °F
Wind: 10 mph from Northwest

Location: Nordholz

Current Time: Apr 18, 2015 at 9:55:08 PM

Latest Report: Apr 18, 2015 at 9:20 PM


Visibility: N/A

Pressure: 30.27 "Hg

Humidity: 81%

Dew point: 37 °F

Location of BremerhavenLocation

Historic Weather in Bremerhaven — Graph

°F

Bremerhaven temperature yesterday

Maximum temperature yesterday: 50 °F (at 2:20 PM)
Minimum temperature yesterday: 41 °F (at 12:20 AM)
Average temperature yesterday: 46 °F

Past Weeks' High & Low Weather Summary

 TemperatureHumidityPressure
High66 °F (Apr 10, 4:20 PM)100% (Apr 7, 10:20 PM)30.57 "Hg (Apr 7, 10:20 PM)
Low32 °F (Apr 5, 5:20 AM)35% (Apr 6, 2:20 PM)29.89 "Hg (Apr 11, 7:20 AM)
Average46 °F76%30.22 "Hg
* Reported Apr 3 8:20 PM — Apr 18 8:01 PM, Bremerhaven, Weather by CustomWeather, © 2015

Note: Actual official high and low records may vary slightly from our data, if they occured in-between our weather recording intervals... More about our weather records

Advertising

Bremerhaven weather history for previous 24 hours

 ConditionsComfort  
Time TempWeatherWind HumidityBarometerVisibility
8:01 PM
Sat, Apr 18
45 °FBroken clouds.12 mph81%30.27 "HgN/A
7:20 PM45 °FPartly sunny.12 mph81%30.30 "HgN/A
6:20 PM46 °FPartly sunny.15 mph76%30.30 "HgN/A
5:20 PM50 °FScattered clouds.15 mph67%30.30 "HgN/A
4:20 PM52 °FPassing clouds.15 mph62%30.33 "HgN/A
3:20 PM52 °FPassing clouds.15 mph58%30.33 "HgN/A
2:20 PM52 °FPassing clouds.15 mph62%30.33 "HgN/A
1:20 PM50 °FPassing clouds.13 mph62%30.36 "HgN/A
12:20 PM52 °FPassing clouds.10 mph44%30.36 "HgN/A
11:20 AM52 °FPassing clouds.7 mph47%30.36 "HgN/A
10:20 AM48 °FPassing clouds.6 mph58%30.36 "HgN/A
9:20 AM46 °FPassing clouds.7 mph71%30.36 "HgN/A
8:20 AM45 °FPassing clouds.7 mph71%30.33 "HgN/A
7:20 AM43 °FPassing clouds.5 mph76%30.33 "HgN/A
6:20 AM39 °FPassing clouds.6 mph87%30.30 "HgN/A
5:20 AM41 °FPassing clouds.6 mph76%30.30 "HgN/A
4:20 AM39 °FChilly.6 mph87%30.27 "HgN/A
3:20 AM41 °FPassing clouds.3 mph76%30.27 "HgN/A
2:20 AM45 °FPassing clouds.7 mph66%30.27 "HgN/A
1:20 AM41 °FQuite cool.6 mph76%30.27 "HgN/A
12:20 AM41 °FPassing clouds.5 mph76%30.24 "HgN/A
11:20 PM
Fri, Apr 17
45 °FPassing clouds.9 mph66%30.21 "HgN/A
10:20 PM48 °FPassing clouds.14 mph76%30.18 "HgN/A
9:20 PM46 °FScattered clouds.9 mph76%30.15 "HgN/A
Weather by CustomWeather, © 2015

See weather overviewHow to use our weather pages